Kangerlussuup Sermersua

KL  EN  DA
ASIAQ
Weather Now GREENLAND SURVEY
Updated [WGT/WGST] Temperature [°C] Wind [m/s] Air pressure [hPa] Relative humidity [%] Precipitation [mm]
Present Wind chill Speed Max
27.09 02:00-13,6-20,23,3 ⇐n/a94368n/a
27.09 01:00-13,9-20,93,6 ⇐n/a94369n/a
27.09 00:00-13,6-21,64,7 ⇐n/a94367n/a
26.09 23:00-14,1-21,74,1 ⇐n/a94369n/a
26.09 22:00-14,3-21,53,7 ⇐n/a94375n/a
26.09 21:00-14,2-21,03,4 ⇐n/a94378n/a
26.09 20:00-14,5-21,23,2 ⇐n/a94278n/a
26.09 19:00-13,8-19,82,8 ⇐n/a94277n/a
26.09 18:00-13,7-20,13,1 ⇐n/a94273n/a
26.09 17:00-13,5-19,22,6 ⇐n/a94172n/a
26.09 16:00-12,4-17,52,4 ⇐n/a94171n/a
26.09 15:00-12,2-17,62,7 ⇐n/a94167n/a
26.09 14:00-12,4-17,42,3 ⇐n/a94169n/a
26.09 13:00-13,0-19,23,1 ⇖n/a94167n/a
26.09 12:00-13,8-20,63,4 ⇐n/a94163n/a
26.09 11:00-14,2-21,13,5 ⇐n/a94169n/a
26.09 10:00-15,3-22,93,8 ⇐n/a94170n/a
26.09 09:00-16,0-23,83,9 ⇐n/a94171n/a
26.09 08:00-16,4-24,44,0 ⇐n/a94174n/a
26.09 07:00-16,1-23,73,7 ⇐n/a94178n/a
26.09 06:00-16,5-24,13,6 ⇐n/a94174n/a
26.09 05:00-16,8-24,13,3 ⇐n/a94174n/a
26.09 04:00-17,5-24,93,3 ⇐n/a94172n/a
26.09 03:00-17,0-25,24,1 ⇐n/a94170n/a
26.09 02:00-16,6-24,43,8 ⇐n/a94274n/a
Position: (67.0955,-49.9513)

[Back]